KC2WGU Weather Reports


Display with metric or nautical units.
time (UTC)temp
F
wind
direction
speed
MPH
gust
MPH
rain 1hr
in
rain 24hr
in
rain mn
in
humidity
%
barometer
mb
20260506182022 49 277 2.0 2.0 0.01 0.36 0.26 97 1003.7
20260506181022 49 277 2.0 2.0 0.02 0.37 0.26 97 1003.7
20260506180026 48 277 2.0 2.0 0.02 0.38 0.26 96 1003.7
20260506175022 48 277 2.0 2.0 0.03 0.38 0.26 97 1003.8
20260506174022 48 277 2.0 2.0 0.03 0.37 0.25 96 1003.8
20260506173023 48 277 2.0 2.0 0.04 0.37 0.25 96 1003.8
20260506172022 48 277 2.0 2.0 0.05 0.37 0.25 96 1003.7
20260506171023 49 277 2.0 2.0 0.05 0.36 0.24 96 1003.8
20260506170022 51 277 2.0 2.0 0.06 0.36 0.24 96 1003.9
20260506165029 51 277 2.0 2.0 0.06 0.35 0.23 96 1003.9
20260506164021 53 277 2.0 2.0 0.06 0.34 0.22 96 1003.9
20260506163022 53 277 2.0 2.0 0.05 0.33 0.21 96 1003.9
20260506162023 53 277 2.0 2.0 0.04 0.32 0.20 97 1003.9
20260506161022 53 277 2.0 2.0 0.03 0.31 0.19 97 1004.1
20260506160021 53 277 2.0 2.0 0.02 0.30 0.18 97 1004.1
20260506155021 53 277 2.0 2.0 0.01 0.29 0.17 96 1004.1
20260506154022 53 277 2.0 2.0 0.01 0.28 0.16 97 1004.1
20260506153021 53 277 2.0 2.0 0.03 0.28 0.16 97 1004.2
20260506152021 53 277 2.0 2.0 0.03 0.28 0.16 97 1004.2
20260506151021 53 277 2.0 2.0 0.04 0.28 0.16 97 1004.2
20260506150022 52 277 2.0 2.0 0.06 0.28 0.16 97 1004.4
20260506145026 52 277 2.0 2.0 0.08 0.28 0.16 97 1004.4
20260506144025 51 277 2.0 2.0 0.07 0.27 0.15 96 1004.4
20260506143023 51 277 2.0 2.0 0.06 0.25 0.13 96 1004.7
20260506142023 51 277 2.0 2.0 0.06 0.25 0.13 96 1004.7
20260506141024 51 277 2.0 2.0 0.05 0.24 0.12 96 1005.1
20260506140024 51 277 2.0 2.0 0.03 0.22 0.10 96 1005.1
20260506135022 50 277 2.0 2.0 0.01 0.20 0.08 96 1004.8
20260506134024 50 277 2.0 2.0 0.01 0.20 0.08 96 1004.8
20260506133022 50 277 2.0 2.0 0.00 0.19 0.07 96 1004.8
20260506132023 50 277 2.0 2.0 0.00 0.19 0.07 96 1004.9
20260506131021 50 277 2.0 2.0 0.00 0.19 0.07 96 1004.9
20260506130021 50 277 2.0 2.0 0.01 0.19 0.07 96 1004.9
20260506125022 50 277 2.0 2.0 0.01 0.19 0.07 96 1005.1
20260506124021 50 277 2.0 2.0 0.02 0.19 0.07 96 1005.0
20260506123022 50 277 2.0 2.0 0.03 0.19 0.07 96 1005.1
20260506122021 50 277 2.0 2.0 0.04 0.19 0.07 95 1005.2
20260506121022 50 277 2.0 2.0 0.04 0.19 0.07 95 1005.2
20260506120022 50 277 2.0 2.0 0.03 0.18 0.06 95 1005.4
20260506115021 50 277 2.0 2.0 0.04 0.18 0.06 95 1005.6
20260506114022 50 277 2.0 2.0 0.03 0.17 0.05 95 1005.7
20260506113058 50 277 2.0 2.0 0.02 0.16 0.04 95 1005.8
20260506112022 50 277 2.0 2.0 0.02 0.15 0.03 95 1005.8
20260506111022 50 277 2.0 2.0 0.02 0.15 0.03 95 1005.6
20260506110024 49 277 2.0 2.0 0.02 0.15 0.03 95 1005.4
20260506105023 49 277 2.0 2.0 0.02 0.14 0.02 95 1005.5
20260506104022 49 277 2.0 2.0 0.02 0.14 0.02 95 1005.5
20260506103022 49 277 2.0 2.0 0.02 0.14 0.02 95 1005.5
20260506102022 49 277 2.0 2.0 0.01 0.13 0.01 94 1005.5
20260506101021 49 277 2.0 2.0 0.01 0.13 0.01 94 1005.6
20260506100022 49 277 2.0 2.0 0.01 0.13 0.01 94 1005.5
20260506095023 49 277 2.0 2.0 0.00 0.12 0.00 94 1005.6
20260506094022 49 277 2.0 2.0 0.00 0.12 0.00 93 1005.6
20260506093022 49 277 2.0 2.0 0.00 0.12 0.00 93 1005.5
20260506092022 49 277 2.0 2.0 0.00 0.12 0.00 93 1005.4
20260506091022 49 277 2.0 2.0 0.00 0.12 0.00 93 1005.4
20260506090023 49 277 2.0 2.0 0.00 0.12 0.00 92 1005.5
20260506085021 50 277 2.0 2.0 0.00 0.12 0.00 92 1005.5
20260506084022 50 277 2.0 2.0 0.00 0.12 0.00 92 1005.5
20260506083022 50 277 2.0 2.0 0.00 0.12 0.00 92 1005.8
20260506082022 50 277 2.0 2.0 0.00 0.12 0.00 92 1006.1
20260506081022 50 277 2.0 2.0 0.00 0.12 0.00 91 1006.1
20260506073023 51 277 2.0 2.0 0.00 0.12 0.00 90 1006.3
20260506072023 51 277 2.0 2.0 0.00 0.12 0.00 90 1006.5
20260506071022 51 277 2.0 2.0 0.00 0.12 0.00 89 1006.6
20260506062022 51 277 2.0 2.0 0.00 0.12 0.00 89 1006.7
20260506061022 51 277 2.0 2.0 0.00 0.12 0.00 88 1006.7
20260506051023 53 277 2.0 3.0 0.00 0.12 0.00 87 1007.3
20260506045022 53 276 2.0 3.0 0.00 0.12 0.00 87 1007.6
20260506044022 54 266 2.0 3.0 0.00 0.12 0.00 87 1007.4
20260506043023 54 291 3.0 5.0 0.00 0.12 0.00 87 1007.7
20260506042022 54 291 2.0 3.0 0.00 0.12 0.00 87 1007.7
20260506041022 54 274 1.0 3.0 0.00 0.12 0.00 86 1007.9
20260506040022 54 303 2.0 5.0 0.00 0.12 0.00 86 1007.9
20260506035022 54 280 2.0 5.0 0.00 0.12 0.12 86 1007.7
20260506034022 54 268 2.0 5.0 0.00 0.12 0.12 85 1007.7
20260506033022 54 302 3.0 5.0 0.00 0.12 0.12 85 1007.8
20260506032022 54 288 3.0 6.0 0.00 0.12 0.12 84 1007.7
20260506031023 55 273 2.0 2.0 0.00 0.12 0.12 83 1007.7
20260506030023 54 232 0.0 2.0 0.00 0.12 0.12 82 1007.7
20260506025022 54 314 3.0 8.0 0.00 0.12 0.12 82 1007.5
20260506024022 54 304 3.0 7.0 0.00 0.12 0.12 82 1007.6
20260506023023 54 292 3.0 7.0 0.00 0.12 0.12 82 1007.6
20260506022023 54 299 2.0 6.0 0.00 0.12 0.12 82 1007.7
20260506021023 55 306 2.0 6.0 0.00 0.12 0.12 81 1007.7
20260506020023 55 309 2.0 5.0 0.00 0.12 0.12 81 1007.7
20260506015022 55 304 4.0 7.0 0.00 0.12 0.12 81 1007.7
20260506014021 56 321 5.0 14.0 0.00 0.12 0.12 80 1007.3
20260506013022 57 291 5.0 13.0 0.00 0.12 0.12 81 1006.9
20260506012022 57 283 4.0 9.0 0.00 0.12 0.12 82 1006.8
20260506011022 59 329 5.0 12.0 0.00 0.12 0.12 83 1006.5
20260506010022 60 319 5.0 9.0 0.00 0.12 0.12 84 1006.0
20260506005021 61 331 3.0 8.0 0.01 0.12 0.12 85 1005.9
20260506004022 61 293 3.0 5.0 0.01 0.12 0.12 84 1005.4
20260506003022 61 312 3.0 7.0 0.01 0.12 0.12 83 1005.2
20260506002021 62 308 2.0 7.0 0.01 0.12 0.12 82 1005.2
20260506001022 62 298 3.0 7.0 0.01 0.12 0.12 82 1005.3
20260506000023 62 304 3.0 8.0 0.01 0.12 0.12 82 1004.7
20260505235021 63 289 6.0 8.0 0.00 0.11 0.11 79 1004.7
20260505234023 63 276 5.0 8.0 0.00 0.11 0.11 77 1004.7
20260505233023 64 289 3.0 6.0 0.00 0.11 0.11 76 1004.6
20260505232022 64 265 3.0 8.0 0.00 0.11 0.11 76 1004.3
20260505231022 64 287 3.0 8.0 0.00 0.11 0.11 76 1004.3
20260505230024 64 260 3.0 7.0 0.00 0.11 0.11 78 1004.3
20260505225022 63 281 4.0 7.0 0.00 0.11 0.11 78 1004.1
20260505224022 63 226 5.0 8.0 0.00 0.11 0.11 79 1004.1
20260505223022 64 216 3.0 7.0 0.00 0.11 0.11 80 1004.2
20260505222022 63 242 5.0 9.0 0.01 0.11 0.11 81 1004.2
20260505221023 62 228 4.0 9.0 0.01 0.11 0.11 82 1004.3
20260505220022 62 231 3.0 7.0 0.01 0.11 0.11 82 1004.4
20260505215022 62 229 6.0 9.0 0.01 0.11 0.11 82 1004.4
20260505214023 62 240 6.0 10.0 0.03 0.11 0.11 82 1004.4
20260505213023 62 261 7.0 13.0 0.04 0.11 0.11 82 1004.5
20260505212023 62 259 7.0 12.0 0.03 0.10 0.10 82 1004.8
20260505211021 62 274 8.0 15.0 0.03 0.10 0.10 83 1004.4
20260505210040 62 277 7.0 15.0 0.03 0.10 0.10 84 1004.4
20260505205022 61 263 11.0 20.0 0.03 0.10 0.10 84 1004.2
20260505204023 62 279 9.0 17.0 0.01 0.08 0.08 82 1003.6
20260505203023 62 293 8.0 17.0 0.00 0.07 0.07 80 1003.6
20260505202023 65 315 13.0 26.0 0.01 0.07 0.07 73 1003.7
20260505201022 70 313 7.0 17.0 0.01 0.07 0.07 64 1003.1
20260505200024 71 299 5.0 9.0 0.02 0.07 0.07 63 1002.3
20260505195023 71 296 6.0 13.0 0.04 0.07 0.07 65 1002.3
20260505194022 71 296 7.0 14.0 0.05 0.07 0.07 66 1002.5
20260505193024 70 280 6.0 12.0 0.05 0.07 0.07 67 1002.4
20260505192023 68 264 5.0 9.0 0.04 0.06 0.06 74 1002.6
20260505190019 65 208 3.0 3.0 0.06 0.06 0.06 72 1003.5
20260505185020 65 208 3.0 3.0 0.05 0.05 0.05 71 1003.3
20260505184019 69 208 3.0 3.0 0.02 0.02 0.02 63 1003.0
20260505183020 68 208 3.0 3.0 0.02 0.02 0.02 65 1002.6